TimeEST,TemperatureF,Dew PointF,Humidity,Sea Level PressureIn,VisibilityMPH,Wind Direction,Wind SpeedMPH,Gust SpeedMPH,PrecipitationIn,Events,Conditions,WindDirDegrees,DateUTC
12:51 AM,34.0,32.0,92,29.55,10.0,West,4.6,-,N/A,,Overcast,280,2013-03-01 05:51:00
1:29 AM,33.8,32.0,93,29.53,10.0,NW,3.5,-,N/A,,Overcast,320,2013-03-01 06:29:00
1:37 AM,33.8,32.0,93,29.53,10.0,NW,3.5,-,N/A,,Overcast,320,2013-03-01 06:37:00
1:51 AM,34.0,32.0,92,29.54,10.0,Calm,Calm,-,N/A,,Mostly Cloudy,0,2013-03-01 06:51:00
1:59 AM,33.8,32.0,93,29.53,10.0,NNW,3.5,-,N/A,,Scattered Clouds,330,2013-03-01 06:59:00
2:51 AM,32.0,30.9,96,29.54,10.0,Calm,Calm,-,N/A,,Scattered Clouds,0,2013-03-01 07:51:00
3:16 AM,30.2,28.4,93,29.53,1.5,Calm,Calm,-,N/A,,Mostly Cloudy,0,2013-03-01 08:16:00
3:23 AM,30.2,28.4,93,29.53,1.2,Calm,Calm,-,N/A,,Mostly Cloudy,0,2013-03-01 08:23:00
3:25 AM,28.4,28.4,100,29.53,2.0,Calm,Calm,-,N/A,,Mostly Cloudy,0,2013-03-01 08:25:00
3:33 AM,28.4,28.4,100,29.53,6.0,Calm,Calm,-,N/A,,Mostly Cloudy,0,2013-03-01 08:33:00
3:49 AM,28.4,28.4,100,29.54,2.0,Calm,Calm,-,N/A,,Mostly Cloudy,0,2013-03-01 08:49:00
3:51 AM,28.9,28.9,100,29.55,1.5,Calm,Calm,-,N/A,,Mostly Cloudy,0,2013-03-01 08:51:00
4:03 AM,28.4,28.4,100,29.54,3.0,Calm,Calm,-,N/A,,Mostly Cloudy,0,2013-03-01 09:03:00
4:11 AM,28.4,28.4,100,29.55,1.8,Calm,Calm,-,N/A,,Mostly Cloudy,0,2013-03-01 09:11:00
4:14 AM,28.4,28.4,100,29.55,1.0,Calm,Calm,-,N/A,,Overcast,0,2013-03-01 09:14:00
4:22 AM,28.4,28.4,100,29.55,0.8,Calm,Calm,-,N/A,,Mostly Cloudy,0,2013-03-01 09:22:00
4:51 AM,28.0,27.0,96,29.56,0.2,Calm,Calm,-,N/A,Fog,Light Freezing Fog,0,2013-03-01 09:51:00
5:14 AM,28.4,26.6,93,29.55,0.8,Calm,Calm,-,N/A,,Mist,0,2013-03-01 10:14:00
5:17 AM,26.6,26.6,100,29.55,1.2,Calm,Calm,-,N/A,,Partly Cloudy,0,2013-03-01 10:17:00
5:19 AM,26.6,26.6,100,29.55,2.0,Calm,Calm,-,N/A,,Partly Cloudy,0,2013-03-01 10:19:00
5:41 AM,26.6,24.8,93,29.56,7.0,Calm,Calm,-,N/A,,Clear,0,2013-03-01 10:41:00
5:51 AM,26.1,25.0,96,29.57,8.0,Calm,Calm,-,N/A,,Clear,0,2013-03-01 10:51:00
6:07 AM,26.6,26.6,100,29.56,1.8,Calm,Calm,-,N/A,,Clear,0,2013-03-01 11:07:00
6:12 AM,26.6,26.6,100,29.56,0.8,Calm,Calm,-,N/A,,Clear,0,2013-03-01 11:12:00
6:20 AM,26.6,24.8,93,29.56,1.5,Calm,Calm,-,N/A,,Clear,0,2013-03-01 11:20:00
6:23 AM,26.6,24.8,93,29.56,3.0,Calm,Calm,-,N/A,,Clear,0,2013-03-01 11:23:00
6:29 AM,24.8,24.8,100,29.56,1.2,Calm,Calm,-,N/A,,Clear,0,2013-03-01 11:29:00
6:40 AM,26.6,24.8,93,29.57,2.5,Calm,Calm,-,N/A,,Clear,0,2013-03-01 11:40:00
6:47 AM,24.8,24.8,100,29.57,5.0,Calm,Calm,-,N/A,,Clear,0,2013-03-01 11:47:00
6:51 AM,25.0,25.0,100,29.59,6.0,Calm,Calm,-,N/A,,Clear,0,2013-03-01 11:51:00
7:51 AM,28.0,28.0,100,29.61,6.0,Calm,Calm,-,N/A,,Scattered Clouds,0,2013-03-01 12:51:00
8:51 AM,33.1,30.0,89,29.62,10.0,Calm,Calm,-,N/A,,Overcast,0,2013-03-01 13:51:00
8:58 AM,33.8,30.2,87,29.61,10.0,Calm,Calm,-,N/A,,Overcast,0,2013-03-01 13:58:00
9:42 AM,35.6,28.4,75,29.61,10.0,NW,8.1,-,N/A,,Overcast,320,2013-03-01 14:42:00
9:51 AM,37.0,28.0,70,29.62,10.0,NNW,8.1,-,N/A,,Overcast,330,2013-03-01 14:51:00
10:51 AM,37.0,27.0,67,29.62,10.0,NW,10.4,-,N/A,,Overcast,310,2013-03-01 15:51:00
11:51 AM,37.0,27.0,67,29.64,10.0,NW,17.3,-,N/A,,Overcast,320,2013-03-01 16:51:00
12:05 PM,35.6,26.6,70,29.63,10.0,WNW,11.5,-,N/A,,Overcast,290,2013-03-01 17:05:00
12:19 PM,35.6,26.6,70,29.63,10.0,WNW,11.5,-,N/A,,Overcast,290,2013-03-01 17:19:00
12:51 PM,36.0,27.0,70,29.63,10.0,NW,12.7,-,N/A,,Overcast,320,2013-03-01 17:51:00
1:51 PM,36.0,26.1,67,29.63,10.0,NW,12.7,18.4,N/A,,Overcast,320,2013-03-01 18:51:00
2:51 PM,37.0,26.1,65,29.64,10.0,NNW,12.7,-,N/A,,Overcast,330,2013-03-01 19:51:00
3:51 PM,37.0,26.1,65,29.65,10.0,NW,9.2,-,N/A,,Overcast,320,2013-03-01 20:51:00
4:51 PM,36.0,26.1,67,29.66,10.0,NNW,8.1,-,N/A,,Overcast,330,2013-03-01 21:51:00
5:51 PM,36.0,25.0,64,29.68,10.0,NNW,9.2,17.3,N/A,,Overcast,330,2013-03-01 22:51:00
6:51 PM,35.1,26.1,70,29.69,10.0,NNW,10.4,-,N/A,,Overcast,330,2013-03-01 23:51:00
7:51 PM,34.0,26.1,73,29.69,10.0,NW,9.2,-,N/A,,Overcast,310,2013-03-02 00:51:00
8:51 PM,34.0,26.1,73,29.69,10.0,NW,3.5,-,N/A,,Overcast,310,2013-03-02 01:51:00
9:51 PM,33.1,26.1,75,29.68,10.0,NW,6.9,-,N/A,,Overcast,310,2013-03-02 02:51:00
10:51 PM,33.1,26.1,75,29.68,10.0,WNW,5.8,-,N/A,,Overcast,300,2013-03-02 03:51:00
11:51 PM,32.0,26.1,79,29.68,10.0,WNW,6.9,-,N/A,,Overcast,300,2013-03-02 04:51:00